contact:dominique.lefevre@mio.osupytheas.fr, maurice.libes@osupytheas.fr, didier.mallarino@osupytheas.fr
Project:EMSO http://www.emso-fr.org/EMSO-France
Depth: 2436.0 m
Title:EMSO Ligure Ouest : Data MII capteur CSTAR
DateTime,Latitude,Longitude,Instrument_Serial,Reference_Counts,Signal_Counts,Corrected_Signal_raw_counts,Calculated_Beam_c_inverse_meters,Internal_thermistor_counts
DateTime,Latitude,Longitude,Instrument_Serial,Reference_Counts,Signal_Counts,Corrected_Signal_raw_counts,Calculated_Beam_c_inverse_meters,Internal_thermistor_counts
2022-03-10T00:00:15,42.805,6.029,CST-1368DR,4857,5833,12817,0.790,551
2022-03-10T00:03:17,42.805,6.029,CST-1368DR,4857,5835,12821,0.789,551
2022-03-10T00:06:18,42.805,6.029,CST-1368DR,4857,5839,12831,0.786,551
2022-03-10T00:09:20,42.805,6.029,CST-1368DR,4857,5843,12839,0.783,551
2022-03-10T00:12:21,42.805,6.029,CST-1368DR,4857,5846,12847,0.781,551
2022-03-10T00:15:23,42.805,6.029,CST-1368DR,4857,5827,12805,0.794,551
2022-03-10T00:18:24,42.805,6.029,CST-1368DR,4857,5816,12781,0.801,551
2022-03-10T00:21:26,42.805,6.029,CST-1368DR,4857,5833,12818,0.790,551
2022-03-10T00:24:28,42.805,6.029,CST-1368DR,4857,5811,12769,0.805,551
2022-03-10T00:27:29,42.805,6.029,CST-1368DR,4857,5812,12772,0.804,551
2022-03-10T00:30:31,42.805,6.029,CST-1368DR,4857,5846,12847,0.781,551
2022-03-10T00:33:32,42.805,6.029,CST-1368DR,4857,5828,12808,0.793,551
2022-03-10T00:36:34,42.805,6.029,CST-1368DR,4857,5834,12820,0.789,551
2022-03-10T00:39:35,42.805,6.029,CST-1368DR,4857,5821,12792,0.798,551
2022-03-10T00:42:37,42.805,6.029,CST-1368DR,4857,5828,12808,0.793,551
2022-03-10T00:45:39,42.805,6.029,CST-1368DR,4857,5837,12826,0.787,551
2022-03-10T00:48:40,42.805,6.029,CST-1368DR,4857,5840,12834,0.785,551
2022-03-10T00:51:42,42.805,6.029,CST-1368DR,4857,5824,12799,0.796,551
2022-03-10T00:54:43,42.805,6.029,CST-1368DR,4857,5829,12809,0.793,551
2022-03-10T00:57:45,42.805,6.029,CST-1368DR,4857,5827,12804,0.794,551
2022-03-10T01:00:47,42.805,6.029,CST-1368DR,4857,5840,12833,0.785,551
2022-03-10T01:03:48,42.805,6.029,CST-1368DR,4857,5816,12780,0.802,551
2022-03-10T01:06:50,42.805,6.029,CST-1368DR,4857,5822,12794,0.797,551
2022-03-10T01:09:51,42.805,6.029,CST-1368DR,4856,5814,12779,0.802,551
2022-03-10T01:12:53,42.805,6.029,CST-1368DR,4857,5824,12797,0.796,551
2022-03-10T01:15:54,42.805,6.029,CST-1368DR,4857,5823,12796,0.797,551
2022-03-10T01:18:56,42.805,6.029,CST-1368DR,4857,5817,12783,0.801,551
2022-03-10T01:21:58,42.805,6.029,CST-1368DR,4857,5839,12832,0.785,551
2022-03-10T01:24:59,42.805,6.029,CST-1368DR,4857,5839,12831,0.786,551
2022-03-10T01:28:01,42.805,6.029,CST-1368DR,4857,5818,12785,0.800,551
2022-03-10T01:31:02,42.805,6.029,CST-1368DR,4857,5847,12849,0.780,551
2022-03-10T01:34:04,42.805,6.029,CST-1368DR,4856,5827,12807,0.793,551
2022-03-10T01:37:05,42.805,6.029,CST-1368DR,4857,5818,12785,0.800,551
2022-03-10T01:40:07,42.805,6.029,CST-1368DR,4857,5816,12780,0.802,551
2022-03-10T01:43:09,42.805,6.029,CST-1368DR,4856,5810,12769,0.805,551
2022-03-10T01:46:10,42.805,6.029,CST-1368DR,4856,5797,12740,0.814,551
2022-03-10T01:49:12,42.805,6.029,CST-1368DR,4857,5835,12821,0.789,551
2022-03-10T01:52:13,42.805,6.029,CST-1368DR,4857,5822,12794,0.797,550
2022-03-10T01:55:15,42.805,6.029,CST-1368DR,4857,5836,12823,0.788,551
2022-03-10T01:58:17,42.805,6.029,CST-1368DR,4857,5838,12830,0.786,551
2022-03-10T02:01:18,42.805,6.029,CST-1368DR,4856,5835,12825,0.788,551
2022-03-10T02:04:20,42.805,6.029,CST-1368DR,4856,5838,12832,0.785,551
2022-03-10T02:07:21,42.805,6.029,CST-1368DR,4857,5819,12788,0.799,551
2022-03-10T02:10:23,42.805,6.029,CST-1368DR,4857,5836,12825,0.788,551
2022-03-10T02:13:24,42.805,6.029,CST-1368DR,4856,5836,12827,0.787,551
2022-03-10T02:16:26,42.805,6.029,CST-1368DR,4856,5825,12802,0.795,551
2022-03-10T02:19:28,42.805,6.029,CST-1368DR,4857,5830,12810,0.792,551
2022-03-10T02:22:29,42.805,6.029,CST-1368DR,4857,5841,12834,0.785,551
2022-03-10T02:25:31,42.805,6.029,CST-1368DR,4857,5841,12834,0.785,551
2022-03-10T02:28:32,42.805,6.029,CST-1368DR,4856,5825,12802,0.795,551
2022-03-10T02:31:34,42.805,6.029,CST-1368DR,4857,5832,12816,0.790,551
2022-03-10T02:34:36,42.805,6.029,CST-1368DR,4856,5829,12812,0.792,551
2022-03-10T02:37:37,42.805,6.029,CST-1368DR,4857,5842,12837,0.784,551
2022-03-10T02:40:39,42.805,6.029,CST-1368DR,4857,5832,12815,0.791,551
2022-03-10T02:43:40,42.805,6.029,CST-1368DR,4857,5834,12820,0.789,551
2022-03-10T02:46:42,42.805,6.029,CST-1368DR,4857,5840,12832,0.785,551
2022-03-10T02:49:43,42.805,6.029,CST-1368DR,4857,5827,12805,0.794,551
2022-03-10T02:52:45,42.805,6.029,CST-1368DR,4857,5837,12827,0.787,551
2022-03-10T02:55:47,42.805,6.029,CST-1368DR,4856,5812,12775,0.803,551
2022-03-10T02:58:48,42.805,6.029,CST-1368DR,4856,5824,12800,0.795,551
2022-03-10T03:01:50,42.805,6.029,CST-1368DR,4857,5841,12836,0.784,551
2022-03-10T03:04:51,42.805,6.029,CST-1368DR,4856,5833,12821,0.789,551
2022-03-10T03:07:53,42.805,6.029,CST-1368DR,4856,5827,12808,0.793,551
2022-03-10T03:10:54,42.805,6.029,CST-1368DR,4856,5830,12814,0.791,551
2022-03-10T03:13:56,42.805,6.029,CST-1368DR,4856,5830,12813,0.791,551
2022-03-10T03:16:58,42.805,6.029,CST-1368DR,4856,5831,12816,0.790,551
2022-03-10T03:19:59,42.805,6.029,CST-1368DR,4856,5821,12794,0.797,551
2022-03-10T03:23:01,42.805,6.029,CST-1368DR,4856,5824,12801,0.795,551
2022-03-10T03:26:02,42.805,6.029,CST-1368DR,4856,5826,12805,0.794,551
2022-03-10T03:29:04,42.805,6.029,CST-1368DR,4856,5830,12814,0.791,551
2022-03-10T03:32:06,42.805,6.029,CST-1368DR,4856,5830,12813,0.791,551
2022-03-10T03:35:07,42.805,6.029,CST-1368DR,4856,5827,12807,0.793,551
2022-03-10T03:38:09,42.805,6.029,CST-1368DR,4856,5831,12816,0.790,551
2022-03-10T03:41:10,42.805,6.029,CST-1368DR,4856,5828,12809,0.793,551
2022-03-10T03:44:12,42.805,6.029,CST-1368DR,4856,5824,12800,0.795,551
2022-03-10T03:47:13,42.805,6.029,CST-1368DR,4856,5824,12800,0.795,551
2022-03-10T03:50:15,42.805,6.029,CST-1368DR,4856,5834,12822,0.789,551
2022-03-10T03:53:17,42.805,6.029,CST-1368DR,4856,5829,12811,0.792,551
2022-03-10T03:56:18,42.805,6.029,CST-1368DR,4856,5826,12805,0.794,551
2022-03-10T03:59:20,42.805,6.029,CST-1368DR,4856,5819,12789,0.799,551
2022-03-10T04:02:21,42.805,6.029,CST-1368DR,4856,5822,12796,0.797,551
2022-03-10T04:05:23,42.805,6.029,CST-1368DR,4856,5823,12799,0.796,551
2022-03-10T04:08:25,42.805,6.029,CST-1368DR,4856,5825,12803,0.794,551
2022-03-10T04:11:26,42.805,6.029,CST-1368DR,4856,5822,12795,0.797,551
2022-03-10T04:14:28,42.805,6.029,CST-1368DR,4856,5823,12799,0.796,551
2022-03-10T04:17:29,42.805,6.029,CST-1368DR,4856,5829,12811,0.792,551
2022-03-10T04:20:31,42.805,6.029,CST-1368DR,4856,5820,12792,0.798,551
2022-03-10T04:23:32,42.805,6.029,CST-1368DR,4856,5819,12790,0.799,551
2022-03-10T04:26:34,42.805,6.029,CST-1368DR,4856,5816,12783,0.801,551
2022-03-10T04:29:36,42.805,6.029,CST-1368DR,4856,5819,12789,0.799,551
2022-03-10T04:32:37,42.805,6.029,CST-1368DR,4856,5822,12796,0.797,551
2022-03-10T04:35:39,42.805,6.029,CST-1368DR,4856,5819,12790,0.799,551
2022-03-10T04:38:40,42.805,6.029,CST-1368DR,4856,5814,12778,0.802,551
2022-03-10T04:41:42,42.805,6.029,CST-1368DR,4856,5817,12785,0.800,551
2022-03-10T04:44:43,42.805,6.029,CST-1368DR,4856,5821,12793,0.798,551
2022-03-10T04:47:45,42.805,6.029,CST-1368DR,4856,5820,12792,0.798,551
2022-03-10T04:50:47,42.805,6.029,CST-1368DR,4856,5827,12807,0.793,551
2022-03-10T04:53:48,42.805,6.029,CST-1368DR,4856,5824,12801,0.795,551
2022-03-10T04:56:50,42.805,6.029,CST-1368DR,4856,5825,12802,0.795,551
2022-03-10T04:59:51,42.805,6.029,CST-1368DR,4856,5817,12784,0.800,551
2022-03-10T05:02:53,42.805,6.029,CST-1368DR,4856,5825,12803,0.794,551
2022-03-10T05:05:55,42.805,6.029,CST-1368DR,4856,5812,12775,0.803,551
2022-03-10T05:08:56,42.805,6.029,CST-1368DR,4856,5817,12784,0.800,551
2022-03-10T05:11:58,42.805,6.029,CST-1368DR,4856,5818,12786,0.800,551
2022-03-10T05:14:59,42.805,6.029,CST-1368DR,4856,5812,12775,0.803,551
2022-03-10T05:18:01,42.805,6.029,CST-1368DR,4856,5817,12785,0.800,551
2022-03-10T05:21:02,42.805,6.029,CST-1368DR,4856,5824,12800,0.795,551
2022-03-10T05:24:04,42.805,6.029,CST-1368DR,4856,5820,12791,0.798,551
2022-03-10T05:27:06,42.805,6.029,CST-1368DR,4856,5817,12784,0.800,551
2022-03-10T05:30:07,42.805,6.029,CST-1368DR,4856,5815,12781,0.801,551
2022-03-10T05:33:09,42.805,6.029,CST-1368DR,4856,5812,12773,0.804,551
2022-03-10T05:36:10,42.805,6.029,CST-1368DR,4856,5808,12764,0.807,551
2022-03-10T05:39:12,42.805,6.029,CST-1368DR,4856,5815,12782,0.801,551
2022-03-10T05:42:13,42.805,6.029,CST-1368DR,4856,5807,12764,0.807,551
2022-03-10T05:45:15,42.805,6.029,CST-1368DR,4856,5814,12779,0.802,551
2022-03-10T05:48:17,42.805,6.029,CST-1368DR,4856,5812,12775,0.803,551
2022-03-10T05:51:18,42.805,6.029,CST-1368DR,4856,5814,12779,0.802,551
2022-03-10T05:54:20,42.805,6.029,CST-1368DR,4856,5807,12763,0.807,551
2022-03-10T05:57:21,42.805,6.029,CST-1368DR,4856,5807,12763,0.807,551
2022-03-10T06:00:23,42.805,6.029,CST-1368DR,4856,5806,12761,0.808,551
2022-03-10T06:03:25,42.805,6.029,CST-1368DR,4856,5810,12769,0.805,551
2022-03-10T06:06:26,42.805,6.029,CST-1368DR,4856,5812,12773,0.804,551
2022-03-10T06:09:28,42.805,6.029,CST-1368DR,4856,5808,12766,0.806,551
2022-03-10T06:12:29,42.805,6.029,CST-1368DR,4856,5813,12777,0.803,551
2022-03-10T06:15:31,42.805,6.029,CST-1368DR,4856,5810,12770,0.805,551
2022-03-10T06:18:32,42.805,6.029,CST-1368DR,4856,5810,12769,0.805,551
2022-03-10T06:21:34,42.805,6.029,CST-1368DR,4856,5819,12790,0.799,551
2022-03-10T06:24:36,42.805,6.029,CST-1368DR,4856,5811,12773,0.804,551
2022-03-10T06:27:37,42.805,6.029,CST-1368DR,4856,5809,12767,0.806,551
2022-03-10T06:30:39,42.805,6.029,CST-1368DR,4856,5808,12766,0.806,551
2022-03-10T06:33:40,42.805,6.029,CST-1368DR,4856,5809,12768,0.805,551
2022-03-10T06:36:42,42.805,6.029,CST-1368DR,4856,5809,12768,0.805,551
2022-03-10T06:39:44,42.805,6.029,CST-1368DR,4856,5805,12758,0.809,551
2022-03-10T06:42:45,42.805,6.029,CST-1368DR,4856,5810,12771,0.804,551
2022-03-10T06:45:47,42.805,6.029,CST-1368DR,4856,5813,12777,0.803,551
2022-03-10T06:48:48,42.805,6.029,CST-1368DR,4856,5802,12751,0.811,551
2022-03-10T06:51:50,42.805,6.029,CST-1368DR,4856,5807,12763,0.807,551
2022-03-10T06:54:51,42.805,6.029,CST-1368DR,4856,5810,12769,0.805,551
2022-03-10T06:57:53,42.805,6.029,CST-1368DR,4856,5801,12750,0.811,551
2022-03-10T07:00:55,42.805,6.029,CST-1368DR,4856,5803,12755,0.809,551
2022-03-10T07:03:56,42.805,6.029,CST-1368DR,4856,5814,12778,0.802,551
2022-03-10T07:06:58,42.805,6.029,CST-1368DR,4856,5810,12771,0.804,551
2022-03-10T07:09:59,42.805,6.029,CST-1368DR,4856,5806,12761,0.808,551
2022-03-10T07:13:01,42.805,6.029,CST-1368DR,4856,5811,12771,0.804,551
2022-03-10T07:16:02,42.805,6.029,CST-1368DR,4856,5810,12769,0.805,551
2022-03-10T07:19:04,42.805,6.029,CST-1368DR,4856,5811,12771,0.804,551
2022-03-10T07:22:06,42.805,6.029,CST-1368DR,4856,5806,12761,0.808,551
2022-03-10T07:25:07,42.805,6.029,CST-1368DR,4856,5810,12770,0.805,551
2022-03-10T07:28:09,42.805,6.029,CST-1368DR,4856,5807,12764,0.807,551
2022-03-10T07:31:10,42.805,6.029,CST-1368DR,4856,5810,12769,0.805,551
2022-03-10T07:34:12,42.805,6.029,CST-1368DR,4856,5806,12761,0.808,551
2022-03-10T07:37:14,42.805,6.029,CST-1368DR,4856,5812,12774,0.804,551
2022-03-10T07:40:15,42.805,6.029,CST-1368DR,4856,5808,12766,0.806,551
2022-03-10T07:43:17,42.805,6.029,CST-1368DR,4856,5809,12767,0.806,551
2022-03-10T07:46:18,42.805,6.029,CST-1368DR,4856,5798,12744,0.813,551
2022-03-10T07:49:20,42.805,6.029,CST-1368DR,4856,5802,12751,0.811,551
2022-03-10T07:52:21,42.805,6.029,CST-1368DR,4856,5805,12759,0.808,551
2022-03-10T07:55:23,42.805,6.029,CST-1368DR,4856,5802,12753,0.810,551
2022-03-10T07:58:25,42.805,6.029,CST-1368DR,4856,5800,12747,0.812,551
2022-03-10T08:01:26,42.805,6.029,CST-1368DR,4856,5806,12760,0.808,551
2022-03-10T08:04:28,42.805,6.029,CST-1368DR,4856,5808,12766,0.806,551
2022-03-10T08:07:29,42.805,6.029,CST-1368DR,4856,5812,12773,0.804,551
2022-03-10T08:10:31,42.805,6.029,CST-1368DR,4856,5808,12766,0.806,551
2022-03-10T08:13:32,42.805,6.029,CST-1368DR,4856,5799,12745,0.813,551
2022-03-10T08:16:34,42.805,6.029,CST-1368DR,4856,5814,12779,0.802,551
2022-03-10T08:19:36,42.805,6.029,CST-1368DR,4856,5799,12746,0.812,551
2022-03-10T08:22:37,42.805,6.029,CST-1368DR,4856,5799,12746,0.812,551
2022-03-10T08:25:39,42.805,6.029,CST-1368DR,4856,5805,12758,0.809,551
2022-03-10T08:28:40,42.805,6.029,CST-1368DR,4856,5803,12753,0.810,551
2022-03-10T08:31:42,42.805,6.029,CST-1368DR,4856,5803,12753,0.810,551
2022-03-10T08:34:44,42.805,6.029,CST-1368DR,4856,5809,12768,0.805,551
2022-03-10T08:37:45,42.805,6.029,CST-1368DR,4856,5797,12741,0.814,551
2022-03-10T08:40:47,42.805,6.029,CST-1368DR,4856,5800,12749,0.811,551
2022-03-10T08:43:48,42.805,6.029,CST-1368DR,4856,5808,12766,0.806,551
2022-03-10T08:46:50,42.805,6.029,CST-1368DR,4856,5804,12757,0.809,551
2022-03-10T08:49:51,42.805,6.029,CST-1368DR,4856,5803,12753,0.810,551
2022-03-10T08:52:53,42.805,6.029,CST-1368DR,4856,5804,12756,0.809,551
2022-03-10T08:55:55,42.805,6.029,CST-1368DR,4856,5799,12746,0.812,551
2022-03-10T08:58:56,42.805,6.029,CST-1368DR,4856,5803,12754,0.810,551
2022-03-10T09:01:58,42.805,6.029,CST-1368DR,4856,5800,12747,0.812,551
2022-03-10T09:04:59,42.805,6.029,CST-1368DR,4856,5809,12767,0.806,551
2022-03-10T09:08:01,42.805,6.029,CST-1368DR,4856,5803,12754,0.810,551
2022-03-10T09:11:03,42.805,6.029,CST-1368DR,4856,5799,12745,0.813,551
2022-03-10T09:14:04,42.805,6.029,CST-1368DR,4856,5799,12746,0.812,551
2022-03-10T09:17:06,42.805,6.029,CST-1368DR,4856,5800,12747,0.812,551
2022-03-10T09:20:07,42.805,6.029,CST-1368DR,4856,5807,12762,0.807,551
2022-03-10T09:23:09,42.805,6.029,CST-1368DR,4856,5791,12727,0.818,551
2022-03-10T09:26:10,42.805,6.029,CST-1368DR,4856,5797,12741,0.814,551
2022-03-10T09:29:12,42.805,6.029,CST-1368DR,4856,5792,12730,0.817,551
2022-03-10T09:32:14,42.805,6.029,CST-1368DR,4856,5797,12741,0.814,551
2022-03-10T09:35:15,42.805,6.029,CST-1368DR,4856,5799,12746,0.812,551
2022-03-10T09:38:17,42.805,6.029,CST-1368DR,4856,5797,12741,0.814,551
2022-03-10T09:41:18,42.805,6.029,CST-1368DR,4856,5798,12744,0.813,551
2022-03-10T09:44:20,42.805,6.029,CST-1368DR,4856,5793,12732,0.817,551
2022-03-10T09:47:21,42.805,6.029,CST-1368DR,4856,5792,12731,0.817,551
2022-03-10T09:50:23,42.805,6.029,CST-1368DR,4856,5787,12720,0.820,551
2022-03-10T09:53:25,42.805,6.029,CST-1368DR,4856,5793,12733,0.816,551
2022-03-10T09:56:26,42.805,6.029,CST-1368DR,4856,5794,12734,0.816,551
2022-03-10T09:59:28,42.805,6.029,CST-1368DR,4856,5795,12736,0.815,551
2022-03-10T10:02:29,42.805,6.029,CST-1368DR,4856,5793,12733,0.816,551
2022-03-10T10:05:31,42.805,6.029,CST-1368DR,4856,5789,12724,0.819,551
2022-03-10T10:08:33,42.805,6.029,CST-1368DR,4856,5781,12705,0.825,551
2022-03-10T10:11:34,42.805,6.029,CST-1368DR,4856,5795,12738,0.815,551
2022-03-10T10:14:36,42.805,6.029,CST-1368DR,4856,5789,12723,0.820,551
2022-03-10T10:17:37,42.805,6.029,CST-1368DR,4856,5801,12750,0.811,551
2022-03-10T10:20:39,42.805,6.029,CST-1368DR,4856,5796,12740,0.814,551
2022-03-10T10:23:40,42.805,6.029,CST-1368DR,4856,5798,12744,0.813,551
2022-03-10T10:26:42,42.805,6.029,CST-1368DR,4856,5800,12747,0.812,550
2022-03-10T10:29:44,42.805,6.029,CST-1368DR,4856,5798,12743,0.813,551
2022-03-10T10:32:45,42.805,6.029,CST-1368DR,4856,5798,12744,0.813,551
2022-03-10T10:35:47,42.805,6.029,CST-1368DR,4856,5795,12738,0.815,551
2022-03-10T10:38:48,42.805,6.029,CST-1368DR,4856,5789,12724,0.819,551
2022-03-10T10:41:50,42.805,6.029,CST-1368DR,4856,5797,12740,0.814,551
2022-03-10T10:44:52,42.805,6.029,CST-1368DR,4856,5802,12752,0.810,551
2022-03-10T10:47:53,42.805,6.029,CST-1368DR,4856,5791,12727,0.818,551
2022-03-10T10:50:55,42.805,6.029,CST-1368DR,4856,5792,12730,0.817,551
2022-03-10T10:53:56,42.805,6.029,CST-1368DR,4856,5795,12736,0.815,551
2022-03-10T10:56:58,42.805,6.029,CST-1368DR,4856,5792,12730,0.817,550
2022-03-10T10:59:59,42.805,6.029,CST-1368DR,4856,5797,12741,0.814,551
2022-03-10T11:03:01,42.805,6.029,CST-1368DR,4856,5797,12740,0.814,551
2022-03-10T11:06:03,42.805,6.029,CST-1368DR,4856,5797,12740,0.814,551
2022-03-10T11:09:04,42.805,6.029,CST-1368DR,4856,5797,12741,0.814,551
2022-03-10T11:12:06,42.805,6.029,CST-1368DR,4856,5795,12736,0.815,551
2022-03-10T11:15:07,42.805,6.029,CST-1368DR,4856,5789,12724,0.819,551
2022-03-10T11:18:09,42.805,6.029,CST-1368DR,4856,5797,12740,0.814,551
2022-03-10T11:21:10,42.805,6.029,CST-1368DR,4856,5790,12726,0.819,551
2022-03-10T11:24:12,42.805,6.029,CST-1368DR,4856,5790,12725,0.819,551
2022-03-10T11:27:14,42.805,6.029,CST-1368DR,4856,5805,12760,0.808,551
2022-03-10T11:30:15,42.805,6.029,CST-1368DR,4856,5787,12719,0.821,551
2022-03-10T11:33:17,42.805,6.029,CST-1368DR,4856,5789,12724,0.819,551
2022-03-10T11:36:18,42.805,6.029,CST-1368DR,4856,5812,12775,0.803,551
2022-03-10T11:39:20,42.805,6.029,CST-1368DR,4856,5797,12741,0.814,551
2022-03-10T11:42:22,42.805,6.029,CST-1368DR,4856,5794,12734,0.816,551
2022-03-10T11:45:23,42.805,6.029,CST-1368DR,4856,5806,12762,0.807,551
2022-03-10T11:48:25,42.805,6.029,CST-1368DR,4856,5806,12760,0.808,551
2022-03-10T11:51:26,42.805,6.029,CST-1368DR,4856,5800,12749,0.811,551
2022-03-10T11:54:28,42.805,6.029,CST-1368DR,4856,5794,12734,0.816,551
2022-03-10T11:57:29,42.805,6.029,CST-1368DR,4856,5800,12749,0.811,551
2022-03-10T12:00:31,42.805,6.029,CST-1368DR,4856,5798,12744,0.813,551
2022-03-10T12:03:33,42.805,6.029,CST-1368DR,4856,5791,12727,0.818,551
2022-03-10T12:06:34,42.805,6.029,CST-1368DR,4856,5791,12727,0.818,551
2022-03-10T12:09:36,42.805,6.029,CST-1368DR,4856,5797,12742,0.814,551
2022-03-10T12:12:37,42.805,6.029,CST-1368DR,4856,5797,12742,0.814,551
2022-03-10T12:15:39,42.805,6.029,CST-1368DR,4856,5793,12733,0.816,551
2022-03-10T12:18:41,42.805,6.029,CST-1368DR,4856,5794,12734,0.816,551
2022-03-10T12:21:42,42.805,6.029,CST-1368DR,4856,5799,12745,0.813,551
2022-03-10T12:24:44,42.805,6.029,CST-1368DR,4856,5790,12725,0.819,551
2022-03-10T12:27:45,42.805,6.029,CST-1368DR,4856,5809,12768,0.805,551
2022-03-10T12:30:47,42.805,6.029,CST-1368DR,4856,5792,12729,0.818,551
2022-03-10T12:33:48,42.805,6.029,CST-1368DR,4856,5790,12725,0.819,551
2022-03-10T12:36:50,42.805,6.029,CST-1368DR,4856,5803,12755,0.809,550
2022-03-10T12:39:52,42.805,6.029,CST-1368DR,4856,5798,12743,0.813,551
2022-03-10T12:42:53,42.805,6.029,CST-1368DR,4856,5793,12733,0.816,551
2022-03-10T12:45:55,42.805,6.029,CST-1368DR,4856,5798,12744,0.813,551
2022-03-10T12:48:56,42.805,6.029,CST-1368DR,4856,5800,12748,0.812,551
2022-03-10T12:51:58,42.805,6.029,CST-1368DR,4856,5800,12748,0.812,551
2022-03-10T12:54:59,42.805,6.029,CST-1368DR,4856,5800,12747,0.812,551
2022-03-10T12:58:01,42.805,6.029,CST-1368DR,4856,5799,12745,0.813,551
2022-03-10T13:01:03,42.805,6.029,CST-1368DR,4856,5794,12734,0.816,551
2022-03-10T13:04:04,42.805,6.029,CST-1368DR,4856,5797,12742,0.814,551
2022-03-10T13:07:06,42.805,6.029,CST-1368DR,4856,5793,12733,0.816,551
2022-03-10T13:10:07,42.805,6.029,CST-1368DR,4856,5805,12759,0.808,551
2022-03-10T13:13:09,42.805,6.029,CST-1368DR,4856,5799,12745,0.813,551
2022-03-10T13:16:11,42.805,6.029,CST-1368DR,4856,5799,12746,0.812,551
2022-03-10T13:19:12,42.805,6.029,CST-1368DR,4856,5797,12741,0.814,551
2022-03-10T13:22:14,42.805,6.029,CST-1368DR,4856,5802,12752,0.810,551
2022-03-10T13:25:15,42.805,6.029,CST-1368DR,4856,5807,12763,0.807,551
2022-03-10T13:28:17,42.805,6.029,CST-1368DR,4856,5797,12741,0.814,551
2022-03-10T13:31:18,42.805,6.029,CST-1368DR,4856,5803,12753,0.810,551
2022-03-10T13:34:20,42.805,6.029,CST-1368DR,4856,5802,12752,0.810,550
2022-03-10T13:37:22,42.805,6.029,CST-1368DR,4856,5793,12733,0.816,551
2022-03-10T13:40:23,42.805,6.029,CST-1368DR,4856,5802,12751,0.811,551
2022-03-10T13:43:25,42.805,6.029,CST-1368DR,4856,5795,12737,0.815,551
2022-03-10T13:46:26,42.805,6.029,CST-1368DR,4856,5809,12767,0.806,551
2022-03-10T13:49:28,42.805,6.029,CST-1368DR,4856,5796,12739,0.815,551
2022-03-10T13:52:29,42.805,6.029,CST-1368DR,4856,5800,12747,0.812,551
2022-03-10T13:55:31,42.805,6.029,CST-1368DR,4856,5800,12748,0.812,551
2022-03-10T13:58:33,42.805,6.029,CST-1368DR,4856,5796,12739,0.815,551
2022-03-10T14:01:34,42.805,6.029,CST-1368DR,4856,5798,12744,0.813,551
2022-03-10T14:04:36,42.805,6.029,CST-1368DR,4856,5802,12751,0.811,551
2022-03-10T14:07:37,42.805,6.029,CST-1368DR,4856,5795,12736,0.815,551
2022-03-10T14:10:39,42.805,6.029,CST-1368DR,4856,5797,12742,0.814,551
2022-03-10T14:13:41,42.805,6.029,CST-1368DR,4856,5797,12742,0.814,551
2022-03-10T14:16:42,42.805,6.029,CST-1368DR,4856,5807,12762,0.807,551
2022-03-10T14:19:44,42.805,6.029,CST-1368DR,4856,5805,12758,0.809,551
2022-03-10T14:22:45,42.805,6.029,CST-1368DR,4856,5805,12758,0.809,551
2022-03-10T14:25:47,42.805,6.029,CST-1368DR,4856,5805,12759,0.808,551
2022-03-10T14:28:48,42.805,6.029,CST-1368DR,4856,5795,12736,0.815,551
2022-03-10T14:31:50,42.805,6.029,CST-1368DR,4856,5809,12767,0.806,551
2022-03-10T14:34:52,42.805,6.029,CST-1368DR,4856,5805,12758,0.809,551
2022-03-10T14:37:53,42.805,6.029,CST-1368DR,4856,5804,12756,0.809,551
2022-03-10T14:40:55,42.805,6.029,CST-1368DR,4856,5810,12770,0.805,551
2022-03-10T14:43:56,42.805,6.029,CST-1368DR,4856,5820,12792,0.798,551
2022-03-10T14:46:58,42.805,6.029,CST-1368DR,4856,5809,12767,0.806,551
2022-03-10T14:49:59,42.805,6.029,CST-1368DR,4856,5805,12759,0.808,551
2022-03-10T14:53:01,42.805,6.029,CST-1368DR,4856,5811,12772,0.804,551
2022-03-10T14:56:03,42.805,6.029,CST-1368DR,4856,5807,12763,0.807,551
2022-03-10T14:59:04,42.805,6.029,CST-1368DR,4856,5809,12768,0.805,551
2022-03-10T15:02:06,42.805,6.029,CST-1368DR,4856,5813,12777,0.803,551
2022-03-10T15:05:07,42.805,6.029,CST-1368DR,4856,5797,12742,0.814,551
2022-03-10T15:08:09,42.805,6.029,CST-1368DR,4856,5809,12768,0.805,551
2022-03-10T15:11:11,42.805,6.029,CST-1368DR,4856,5803,12753,0.810,551
2022-03-10T15:14:12,42.805,6.029,CST-1368DR,4856,5802,12752,0.810,551
2022-03-10T15:17:14,42.805,6.029,CST-1368DR,4856,5806,12761,0.808,551
2022-03-10T15:20:15,42.805,6.029,CST-1368DR,4856,5804,12756,0.809,551
2022-03-10T15:23:17,42.805,6.029,CST-1368DR,4856,5808,12764,0.807,551
2022-03-10T15:26:18,42.805,6.029,CST-1368DR,4856,5796,12739,0.815,551
2022-03-10T15:29:20,42.805,6.029,CST-1368DR,4856,5802,12753,0.810,551
2022-03-10T15:32:22,42.805,6.029,CST-1368DR,4856,5807,12762,0.807,551
2022-03-10T15:35:23,42.805,6.029,CST-1368DR,4856,5797,12742,0.814,551
2022-03-10T15:38:25,42.805,6.029,CST-1368DR,4856,5803,12755,0.809,551
2022-03-10T15:41:26,42.805,6.029,CST-1368DR,4856,5802,12753,0.810,551
2022-03-10T15:44:28,42.805,6.029,CST-1368DR,4856,5812,12774,0.804,551
2022-03-10T15:47:30,42.805,6.029,CST-1368DR,4856,5815,12782,0.801,551
2022-03-10T15:50:31,42.805,6.029,CST-1368DR,4856,5812,12774,0.804,551
2022-03-10T15:53:33,42.805,6.029,CST-1368DR,4856,5812,12774,0.804,551
2022-03-10T15:56:34,42.805,6.029,CST-1368DR,4856,5811,12773,0.804,551
2022-03-10T15:59:36,42.805,6.029,CST-1368DR,4856,5817,12785,0.800,551
2022-03-10T16:02:37,42.805,6.029,CST-1368DR,4856,5815,12781,0.801,551
2022-03-10T16:05:39,42.805,6.029,CST-1368DR,4856,5807,12762,0.807,551
2022-03-10T16:08:41,42.805,6.029,CST-1368DR,4856,5813,12777,0.803,551
2022-03-10T16:11:42,42.805,6.029,CST-1368DR,4856,5809,12767,0.806,551
2022-03-10T16:14:44,42.805,6.029,CST-1368DR,4855,5806,12764,0.807,551
2022-03-10T16:17:45,42.805,6.029,CST-1368DR,4856,5813,12777,0.803,551
2022-03-10T16:20:47,42.805,6.029,CST-1368DR,4856,5821,12794,0.797,551
2022-03-10T16:23:48,42.805,6.029,CST-1368DR,4856,5814,12779,0.802,551
2022-03-10T16:26:50,42.805,6.029,CST-1368DR,4855,5807,12765,0.806,551
2022-03-10T16:29:52,42.805,6.029,CST-1368DR,4855,5808,12768,0.805,551
2022-03-10T16:32:53,42.805,6.029,CST-1368DR,4856,5820,12792,0.798,551
2022-03-10T16:35:55,42.805,6.029,CST-1368DR,4856,5816,12783,0.801,551
2022-03-10T16:38:56,42.805,6.029,CST-1368DR,4855,5805,12762,0.807,551
2022-03-10T16:41:58,42.805,6.029,CST-1368DR,4856,5818,12786,0.800,551
2022-03-10T16:45:00,42.805,6.029,CST-1368DR,4855,5821,12796,0.797,551
2022-03-10T16:48:01,42.805,6.029,CST-1368DR,4856,5807,12763,0.807,551
2022-03-10T16:51:03,42.805,6.029,CST-1368DR,4855,5801,12752,0.810,551